Flag for India Weather past 2 weeks in Tiruchirappalli, Tamil Nadu, India

Now
82 °F

Scattered clouds.


Feels Like: 89 °F
Forecast: 75 / 94 °F
Wind: No wind

Location: Tiruchchirapalli

Current Time: Aug 21, 2014 at 8:47:32 AM

Latest Report: Aug 21, 2014 at 7:10 AM


Visibility: 2 mi

Pressure: 29.71 "Hg

Humidity: 79%

Dew point: 75 °F

Location of TiruchirappalliLocation

Historic Weather in Tiruchirappalli — Graph

°F

Tiruchirappalli temperature yesterday

Maximum temperature yesterday: 99 °F (at 2:40 PM)
Minimum temperature yesterday: 81 °F (at 2:40 AM)
Average temperature yesterday: 85 °F

Past Weeks' High & Low Weather Summary

 TemperatureHumidityPressure
High102 °F (Aug 12, 3:40 PM)100% (Aug 18, 8:40 PM)29.89 "Hg (Aug 18, 8:40 PM)
Low73 °F (Aug 18, 8:40 PM)31% (Aug 9, 3:40 PM)29.62 "Hg (Aug 8, 3:40 PM)
Average87 °F62%29.76 "Hg
* Reported Aug 6 6:40 AM — Aug 21 7:10 AM, Tiruchirappalli, Weather by CustomWeather, © 2014

Note: Actual official high and low records may vary slightly from our data, if they occured in-between our weather recording intervals... More about our weather records

Advertising

Tiruchirappalli weather history for previous 24 hours

 ConditionsComfort  
Time TempWeatherWind HumidityBarometerVisibility
7:10 AM
Aug 21
82 °FScattered clouds.No wind79%29.71 "Hg2 mi
6:40 AM81 °FScattered clouds.No wind89%29.71 "Hg2 mi
6:10 AM81 °FHaze.No wind89%29.71 "Hg2 mi
5:40 AM79 °FPassing clouds.3 mph94%29.71 "Hg2 mi
4:40 AM81 °FPassing clouds.No wind84%29.68 "Hg4 mi
4:10 AM81 °FPassing clouds.3 mph79%29.68 "Hg4 mi
3:10 AM81 °FPassing clouds.2 mph79%29.68 "Hg4 mi
2:10 AM82 °FPassing clouds.3 mph79%29.68 "Hg4 mi
1:40 AM82 °FPassing clouds.2 mph79%29.71 "Hg4 mi
1:10 AM82 °FPassing clouds.3 mph79%29.74 "Hg4 mi
12:40 AM82 °FPassing clouds.2 mph79%29.74 "Hg4 mi
12:10 AM82 °FPassing clouds.3 mph84%29.74 "Hg4 mi
11:40 PM
Aug 20
82 °FPassing clouds.3 mph84%29.74 "Hg4 mi
11:10 PM82 °FPassing clouds.6 mph79%29.74 "Hg4 mi
10:40 PM82 °FPassing clouds.3 mph79%29.74 "Hg4 mi
10:10 PM82 °FPassing clouds.5 mph79%29.74 "Hg4 mi
9:40 PM82 °FPassing clouds.6 mph79%29.74 "Hg4 mi
9:10 PM82 °FPassing clouds.6 mph79%29.74 "Hg3 mi
8:40 PM82 °FPassing clouds.3 mph79%29.74 "Hg3 mi
8:10 PM84 °FPassing clouds.6 mph74%29.74 "Hg3 mi
7:40 PM84 °FPartly cloudy.6 mph74%29.71 "Hg3 mi
7:10 PM84 °FPartly cloudy.3 mph74%29.68 "Hg3 mi
6:10 PM82 °FThunderstorms. Broken clouds.8 mph79%29.68 "Hg2 mi
5:40 PM82 °FThunderstorms. Broken clouds.17 mph79%29.68 "Hg2 mi
4:40 PM90 °FBroken clouds.12 mph63%29.65 "Hg4 mi
3:40 PM95 °FScattered clouds.8 mph50%29.68 "Hg5 mi
2:40 PM99 °FScattered clouds.5 mph44%29.68 "Hg5 mi
2:10 PM93 °FScattered clouds.3 mph53%29.68 "Hg5 mi
1:40 PM93 °FScattered clouds.5 mph53%29.71 "Hg5 mi
1:10 PM93 °FScattered clouds.No wind56%29.74 "Hg5 mi
12:40 PM91 °FScattered clouds.6 mph59%29.74 "Hg5 mi
12:10 PM91 °FScattered clouds.3 mph59%29.77 "Hg5 mi
11:40 AM90 °FScattered clouds.2 mph63%29.77 "Hg4 mi
11:10 AM91 °FScattered clouds.3 mph56%29.77 "Hg4 mi
10:40 AM90 °FScattered clouds.3 mph63%29.80 "Hg3 mi
10:10 AM88 °FScattered clouds.2 mph62%29.80 "Hg3 mi
9:10 AM86 °FScattered clouds.2 mph75%29.80 "Hg2 mi
8:40 AM84 °FScattered clouds.3 mph74%29.83 "Hg2 mi
8:10 AM84 °FScattered clouds.3 mph79%29.83 "Hg2 mi
Weather by CustomWeather, © 2014

See weather overviewHow to use our weather pages